Budapest Ferihegy, Hungary

7:12 PM CET on November 18, 2017 (GMT +0100)
Ferihegy

Weather History for LHBP - June, 2014

Change the Weather History Date:

Saturday, June 28, 2014

  Actual Average Record
Temperature  
Mean Temperature 65 °F -  
Max Temperature 80 °F 78 °F 95 °F (1997)
Min Temperature 50 °F 57 °F 42 °F (2000)
Growing Degree Days 15 (Base 50)    
Moisture  
Dew Point 47 °F    
Average Humidity 51    
Maximum Humidity 87    
Minimum Humidity 28    
Precipitation  
Precipitation 0.00 in - - ()
Sea Level Pressure  
Sea Level Pressure 30.07 in    
Wind  
Wind Speed 5 mph ()    
Max Wind Speed 14 mph    
Max Gust Speed -    
Averages and records for this station are not official NWS values.
T = Trace of Precipitation, MM = Missing Value Source: Averaged Metar Reports

Daily Weather History Graph

Daily Weather History Graph

Search for Another Location

Airport or City:

Trip Planner

Search our weather history database for the weather conditions in past years. The results will help you decide how hot, cold, wet, or windy it might be!

Date:

Astronomy

Jun. 28, 2014 Rise Set
Actual Time 4:48 AM CEST 8:43 PM CEST
Civil Twilight 4:07 AM CEST 9:24 PM CEST
Nautical Twilight 3:12 AM CEST 10:19 PM CEST
Astronomical Twilight 1:46 AM CEST 11:45 PM CEST
Moon 6:03 AM CEST (6/28) 9:07 PM CEST (6/28)
Length of Visible Light 17h 16m
Length of Day
15h 55m
New Moon, 1% of the Moon is Illuminated
Jun 28
New Moon
Jul 5
First Quarter
Jul 12
Full
Jul 19
Last Quarter
Jul 27
New

Hourly Weather History & Observations

Time (CEST) Temp. Dew Point Humidity Pressure Visibility Wind Dir Wind Speed Gust Speed Precip Events Conditions
12:00 AM 57.2 °F 46.4 °F 67% 30.12 in - ESE 4.6 mph - N/A   Clear
12:30 AM 55.4 °F 48.2 °F 77% 30.12 in - Variable 3.5 mph - N/A   Clear
1:00 AM 55.4 °F 46.4 °F 72% 30.12 in - Variable 2.3 mph - N/A   Clear
1:30 AM 53.6 °F 48.2 °F 82% 30.12 in - Calm Calm - N/A   Clear
2:00 AM 53.6 °F 48.2 °F 82% 30.12 in - Variable 2.3 mph - N/A   Clear
2:30 AM 51.8 °F 46.4 °F 82% 30.12 in - Variable 3.5 mph - N/A   Clear
3:00 AM 55.4 °F 46.4 °F 72% 30.12 in - East 4.6 mph - N/A   Clear
3:30 AM 53.6 °F 46.4 °F 77% 30.12 in - East 4.6 mph - N/A   Clear
4:00 AM 51.8 °F 44.6 °F 76% 30.12 in - Variable 2.3 mph - N/A   Clear
4:30 AM 51.8 °F 46.4 °F 82% 30.12 in - Variable 2.3 mph - N/A   Clear
5:00 AM 50.0 °F 46.4 °F 87% 30.12 in - Variable 1.2 mph - N/A   Clear
5:30 AM 51.8 °F 46.4 °F 82% 30.12 in - Variable 2.3 mph - N/A   Clear
6:00 AM 55.4 °F 48.2 °F 77% 30.12 in - Variable 2.3 mph - N/A   Clear
6:30 AM 59.0 °F 51.8 °F 77% 30.12 in - Variable 2.3 mph - N/A   Clear
7:00 AM 60.8 °F 51.8 °F 72% 30.12 in - Variable 2.3 mph - N/A   Clear
7:30 AM 64.4 °F 48.2 °F 56% 30.12 in - East 4.6 mph - N/A   Clear
8:00 AM 66.2 °F 48.2 °F 52% 30.12 in - SE 6.9 mph - N/A   Clear
8:30 AM 68.0 °F 46.4 °F 46% 30.12 in - Variable 3.5 mph - N/A   Clear
9:00 AM 69.8 °F 46.4 °F 43% 30.12 in - Variable 3.5 mph - N/A   Clear
9:30 AM 71.6 °F 48.2 °F 43% 30.12 in - Variable 3.5 mph - N/A   Clear
10:00 AM 75.2 °F 48.2 °F 38% 30.12 in - SE 6.9 mph - N/A   Clear
10:30 AM 73.4 °F 44.6 °F 36% 30.12 in - South 9.2 mph - N/A   Clear
11:00 AM 75.2 °F 46.4 °F 36% 30.12 in - SSE 8.1 mph - N/A   Clear
11:30 AM 75.2 °F 46.4 °F 36% 30.09 in - SSE 9.2 mph - N/A   Clear
12:00 PM 77.0 °F 46.4 °F 34% 30.09 in - South 10.4 mph - N/A   Clear
12:30 PM 77.0 °F 44.6 °F 32% 30.09 in - SSE 10.4 mph - N/A   Clear
1:00 PM 78.8 °F 44.6 °F 30% 30.06 in - South 8.1 mph - N/A   Clear
1:30 PM 78.8 °F 44.6 °F 30% 30.06 in - South 11.5 mph - N/A   Clear
2:00 PM 78.8 °F 44.6 °F 30% 30.06 in - South 10.4 mph - N/A   Clear
2:30 PM 78.8 °F 44.6 °F 30% 30.06 in - South 9.2 mph - N/A   Clear
3:00 PM 80.6 °F 46.4 °F 30% 30.04 in - South 12.7 mph - N/A   Clear
3:30 PM 80.6 °F 46.4 °F 30% 30.04 in - South 12.7 mph - N/A   Clear
4:00 PM 80.6 °F 46.4 °F 30% 30.04 in - South 10.4 mph - N/A   Clear
4:30 PM 78.8 °F 44.6 °F 30% 30.04 in - South 13.8 mph - N/A   Clear
5:00 PM 80.6 °F 46.4 °F 30% 30.01 in - South 12.7 mph - N/A   Clear
5:30 PM 80.6 °F 44.6 °F 28% 30.01 in - South 11.5 mph - N/A   Clear
6:00 PM 78.8 °F 46.4 °F 32% 30.01 in - SSE 13.8 mph - N/A   Clear
6:30 PM 78.8 °F 46.4 °F 32% 30.01 in - SSE 12.7 mph - N/A   Clear
7:00 PM 80.6 °F 46.4 °F 30% 29.98 in - SSE 12.7 mph - N/A   Clear
7:30 PM 78.8 °F 46.4 °F 32% 29.98 in - South 12.7 mph - N/A   Clear
8:00 PM 77.0 °F 48.2 °F 36% 29.98 in - SSE 10.4 mph - N/A   Clear
8:30 PM 71.6 °F 48.2 °F 43% 29.98 in - SE 6.9 mph - N/A   Clear
9:00 PM 68.0 °F 48.2 °F 49% 29.98 in - ESE 9.2 mph - N/A   Clear
9:30 PM 68.0 °F 50.0 °F 52% 29.98 in - ESE 5.8 mph - N/A   Clear
10:00 PM 64.4 °F 48.2 °F 56% 29.98 in - East 6.9 mph - N/A   Clear
10:30 PM 64.4 °F 50.0 °F 59% 29.98 in - East 6.9 mph - N/A   Clear
11:00 PM 62.6 °F 50.0 °F 63% 29.98 in - ESE 5.8 mph - N/A   Clear
11:30 PM 62.6 °F 50.0 °F 63% 29.98 in - ESE 4.6 mph - N/A   Clear